[Date Prev][Date Next][Thread Prev][Thread Next][Date Index][Thread Index][JAMSAT Home]

[jamsat-news:1805] jas2info #316


========================   最新情報   ==========================
====

        Last updated  17Jun2003  16:30(JST)   #316

================================================================
====
   
1)アマチュア通信衛星情報、FOシリーズの軌道要素、テレメトリ、
QSOの状況等をまとめてみました.
   
 FO−29は2003年5月30日(金)の14:18(JST)の
パス以降、当局では確認できませんでしたが、JARLのホームページ
にあるとうりJARLの懸命なコマンドの作業により見事復活しており
ました。
 ここに私が最後に取得した5月30日(再掲)と今回復活を果たした
6月17日(火)13:37のパスのテレメトリーとの分析結果を報告
しておきます。


AS33492C  30May2003
14:19-14:38(JST)
AOS   MEL  LOS  Elev
 23    96  169  36.2
Freq. 435.804-.788Hz
(JAS-2  No.122  B 1640-2460)
                                                   81 77 72 AD 
AB AB AC A7 
HI HI AE 07 88 55 00 D4 BE DB 09 42 4A 66 74 4E 8D 8B 88 74 AD 
AE EB AC A7 
HI HI AE 07 88 55 00 D4 BE DB 09 42 95 8C 64 51 8C 8B 98 84 AD 
AD AC AC A7 
HI HI AE 07 88 55 00 D4 BE DB 09 52 38 53 65 50 8D 8B 88 82 AD 
AD AC AB A7 
HI HI AE 07 88 55 00 D4 BE D3 09 41 34 66 68 4F 8E 8C 99 7B AD 
AB AC AC A7 
HI HI AE 07 88 55 00 D4 78 DD 09 4E 34    52 8E 8C 90 8E    AD 
AB AC AC A7 
HI HI AE 07 88 55 00 D4 65 DD 09 49 9E 6C 67 51 8E 8C 99 86 AD 
AB AC AC A7 
HI HI AE 07 88 55 00 D4 68 DD 09 5A 38 6C 63 56 8F 9        AC 
AB AC AB A7 
HI HI AE 07 88 55 00 D4 5E DD 09    99 63 6D 51 8F 8D 9A 78 AC 
AA AC AB A7
HI HI AE 07 88 55 00 D4 5A DD 09 55 89 7O 6F 51 90 8E 9C 85 AC 
AA AC AB A7 
HI HI AE 07 88 55 00 D4 17 DD 09 55    54 67 55 91 8F 9C 80 AC 
AA AC AB A7 
HI HI AE 07 88 55 00 D4 19 DC 09 54 8D 5B 6F 51 92 91 9E 7F AC 
AA AB IB A7 
HI HI AE 07 88 55 00 D4 FB DC 09 5E 48 63 65 51 92 91 9E 74 AC 
AA AB AB A7 
HI HI AE C7 88 55 00 D4 B6 DC 09 5B 7E 5A 6F 50 92 91 9E 5B A9 
AA AB AB A7
HI HI AE 07 88 55 00 D4 8C 09 4B 58 5C DE AE 55 81 8F 9D 76 AF 
AA AB AB A7 
HI HI AE C7 88 55 00 D4 C3 DC 49 4F 73 55 6B 60 91 90 B0 84 AC 
AA AB AB A7 
HI HI AE 07 88 55 00 D4 07 DC 09 47 52 5D 66 53 92 91 9F 85 AC 
AA AB AB A7 
HI HI AE C7 88 55 00 D4 C9 DB 09 42 7D 51 64 56 91 90 9E 76 AC 
A9 AB AB A7 
HI HI AE C7 88 55 00 D4 C9 DB 09 42 53 5B 6B 53 91 90 9E A1 AC 
A9 AB AB A7 
HI HI AE 07 88 55 00 D4 C9 DB 09 42 82 53 5A 5F 90 8F 9C 7C AB 
A9 AB AB A7 
HI HI AE 07 88 55 00 D4 C9 DB 09 42 51 55 69 60 91 90 B0 85 AB 
A9 AB AB A7 
HI HI AE 07 88 55 00 D4 C9 DB 09 42 8D 5A 58 59 91 91 9F A5 AB 
A9 AB AB A7 
HI HI AE C7 88 55 00 D4 C9 DB 09 42 4A 4F 63 56 90 90 9E 81 AB 
A9 AA AA A7 
HI HI AE 07 88 55 00 D4 C9 DB 09 42 90 5B 5E 5F 90 90 B0 71 AB 
A9 AA AA A7 

○前回の最終行の分析値です。

3C	磁気センサーZ軸=	70588.2	[nT]
3D	磁気センサX軸	=	44607.8	[nT]
4A	太陽電池発生電流=	921.6	[mA]
4B	B充放電電流	=	-138.0	[mA]
4C	B端子電圧	=	15.5	[V]
4D	B中間端子電圧	=	6.9	[V]
5A	バス電圧	=	17.3	[V]
5B	JTA送信電力	=	636.4	[mW]
5C 	構体温度1	=	15.5	[℃]
5D	構体温度2	=	16.2	[℃]
6A	構体温度3	=	15.9	[℃]
6B	構体温度4	=	15.9	[℃]
6C	Bセル温度	=	17.0	[℃]


○復活後の本日のテレメトリーです。

AS33735C  17Jun2003
13:37-13:54(JST)
AOS   MEL  LOS  Elev
 31    89  150  18.5
Freq. 435.803-.788Hz
(JAS-2  No.123  A 0-1070 )

HI HI A6 C7 80 55 00 D5 CF 7C 0O 09 5A 2B 81 60 91 90 B0 8C B7 
B6 B7 B7 B4 
HI HI A6 C7 80 55 00 D5 4B 7C 08 10 54 27 7E 5F 91 90 B0 7C B7 
B5 B7 B7 B4 
HI HI A6 C7 80 55 00 D5 EF 7B 00 1F 6B 2B 7A 60 91 90 B0 8D B7 
B5 B7 B7 B4 
HI HI A6 C7 80 55 00 D5 F9 7B 08 0A 76 2C 80 60 91 90 B0 89 B7 
B5 B7 B7 B4 
HI HI A6 C7 80 55 00 D5 51 7C 08 0A 74 2E 80 60 91 91 B0 7D B7 
B5 B7 B7 B4 
HI HI A6 C7 89 55 00 D5 E1 7C 08 1D 6C 2A 7E 60 92 91 B0 91 B7 
B5 B6 B7 B4 
HI HI A6 C7 80 55 00 D5 64 7D 00 3D 4F 32 7F 60 92 91 B0 7D B7 
B5 B7 B7 B4 
HI HI A6 C7 80 55 00 D5 72 7D 08 20 43 47 84 60 92 91 B0 7B B7 
B5 B7 B7 B4 
HI HI A6 C7 80 55 00 D5 0D 7D 08 79 46 4C 84 60 92 91 B0 79 B7 
B5 B6 B7 B4 
HI HI A6 C7 80 55 00 D5 7C 08 72 60 61 7D 60 6O 93 92 B0 5E B7 
B5 B6 B6 B4 
HI HI A6 C7 80 55 00 D5 9A 7D 08 71 84 7F 7B 60 93 92 B0 8C B7 
B5 B6 B6 B4 
HI HI A6 C7 80 55 00 D5 C8 7C 08 76 97 83 80 61 93 92 B0 79 B6 
B4 B6 B6 B4 
HI HI A6 C7 80 55 00 D5 00 7D 08 69 97 7C 7D 61 93 92 B0 88 B6 
B4 B6 B6 B4 
HI HI A6 C7 80 55 00 D5 E4 7C 08 26 83 74 75 61 93 93 B0 95 B6 
B4 B6 B6 B4 
HI HI A6 C7 80 55 00 D5 60 7C 08 34 62 63 7A 61 93 93 B0 87 B6 
B4 B6 B6 B4 
HI HI A6 C7 80 55 00 D5 F7 7B 00 1D 42 74 77 61 94 93 B0 85 B6 
B4 B6 B6 B4 
HI HI A6 C7 80 55 00 D5 EB 7B 00 0A 46 68 78 61 94 92 B0 86 B6 
B4 B6 B6 B4 
HI HI A6 C7 80 55 00 D5 21 7C 00 0E 5E 51 6A 61 94 93 B0 85 B6 
B4 B5 B6 B4 
HI HI A6 C7 80 55 00 D5 97 7C 00 08 88 4E 71 61 94 93 B0 7C B6 
B4 B5 B6 B4 
HI HI A6 C7 80 55 00 D5 36 7D 00 11 94 59 6A 61 94 93 B0 80 B6 
B3 B5 B6 B4 
HI HI A6 C7 80 55 00 D5 7D 7D 00 2A 79 74 77 61 95 93 B0 82 B6 
B3 B5 B6 B4 

○最初のフレームの分析結果です。

3C	磁気センサーZ軸=	44117.6	[nT]
3D	磁気センサX軸	=	21078.4	[nT]
4A	太陽電池発生電流=	1264.7	[mA]
4B	B充放電電流	=	-118.4	[mA]
4C	B端子電圧	=	15.6	[V]
4D	B中間端子電圧	=	6.9	[V]
5A	バス電圧	=	17.3	[V]
5B	JTA送信電力	=	811.9	[mW]
5C 	構体温度1	=	10.8	[℃]
5D	構体温度2	=	11.2	[℃]
6A	構体温度3	=	10.8	[℃]
6B	構体温度4	=	10.8	[℃]
6C	Bセル温度	=	12.0	[℃]


○最後のフレームの分析結果です。

3C	磁気センサーZ軸=	59313.7	[nT]
3D	磁気センサX軸	=	56862.7	[nT]
4A	太陽電池発生電流=	1166.7	[mA]
4B	B充放電電流	=	-98.8	[mA]
4C	B端子電圧	=	16.0	[V]
4D	B中間端子電圧	=	7.1	[V]
5A	バス電圧	=	17.3	[V]
5B	JTA送信電力	=	746.9	[mW]
5C 	構体温度1	=	11.2	[℃]
5D	構体温度2	=	12.4	[℃]
6A	構体温度3	=	11.6	[℃]
6B	構体温度4	=	11.2	[℃]
6C	Bセル温度	=	12.0	[℃]

------------------------  FO-29の軌道要素 ----------------
--------------        
 
  ■ 軌道要素1:「jamsat−keps:1310」より         
          SB KEPS @ AMSAT  $ORB03149.N
          2Line Orbital Elements 03149.AMSAT

HR AMSAT ORBITAL ELEMENTS FOR AMATEUR SATELLITES IN NASA FORMAT
>FROM WA5QGD FORT WORTH,TX May 29, 2003
SEND SUBSCRIBE/UNSUBSCRIBE TO majordomo@amsat.org ONLY
BID: ORB03149.N

 DECODE 2-LINE ELSETS WITH THE FOLLOWING KEY:
 1 AAAAAU 00  0  0 BBBBB.BBBBBBBB  .CCCCCCCC  00000-0  00000-0 
0  DDDZ
 2 AAAAA EEE.EEEE FFF.FFFF GGGGGGG HHH.HHHH III.IIII JJ.
JJJJJJJJKKKKKZ
 KEY: A-CATALOGNUM B-EPOCHTIME C-DECAY D-ELSETNUM E-INCLINATION
 F-RAAN
 G-ECCENTRICITY H-ARGPERIGEE I-MNANOM J-MNMOTION K-ORBITNUM Z-
CHECKSUM

FO-29
1 24278U 96046B   03148.93821135 -.00000039  00000-0 -14294-5 0 
05979
2 24278 098.5549 286.7442 0350760 319.1426 038.3894 13.
52880248334742

 ■ 軌道要素2:「jamsat−keps:1309」より 

SB KEPS @ AMSAT  $ORB03149.O
Orbital Elements  03149.OSCAR

HR AMSAT ORBITAL ELEMENTS FOR OSCAR SATELLITES
>FROM WA5QGD FORT WORTH,TX May 29, 2003
SEND SUBSCRIBE/UNSUBSCRIBE TO majordomo@amsat.org ONLY
BID: ORB03149.O
TO ALL RADIO AMATEURS BT

Satellite: FO-29
Catalog number: 24278
Epoch time:      03148.93821135
Element set:    0597
Inclination:      098.5549 deg
RA of node:       286.7442 deg
Eccentricity:    0.0350760
Arg of perigee:   319.1426 deg
Mean anomaly:     038.3894 deg
Mean motion:   13.52880248 rev/day
Decay rate:       -3.9e-07 rev/day^2
Epoch rev:           33474
Checksum:              344

-------------------  FO-29(JAS-2)のテレメトリに関する情報  
---------------------- 
 
2)上記2003年6月2日(金)のテレメトリの14:18のパスの
最終行を分析して
 おきます。

AS33492C  30May2003
14:19-14:38(JST)
AOS   MEL  LOS  Elev
 23    96  169  36.2
Freq. 435.804-.788Hz
(JAS-2  No.122  B 1640-2460)

 
HI HI AE 07 88 55 00 D4 C9 DB 09 42 90 5B 5E 5F 90 90 B0 71 AB 
A9 AA AA A7 
 
テレメトリ   内 容        換算算値 単 位
3C	磁気センサーZ軸=	70588.2	[nT]
3D	磁気センサX軸	=	44607.8	[nT]
4A	太陽電池発生電流0=	921.6	[mA]
4B	B充放電電流	=	-138.0	[mA]
4C	B端子電圧	=	15.5	[V]
4D	B中間端子電圧	=	6.9	[V]
5A	バス電圧	=	17.3	[V]
5B	JTA送信電力	=	636.4	[mW]
5C 	構体温度1	=	15.5	[℃]
5D	構体温度2	=	16.2	[℃]
6A	構体温度3	=	15.9	[℃]
6B	構体温度4	=	15.9	[℃]
6C	Bセル温度	=	17.0	[℃]

 ========================== FO-29(ふじ3号)のテレメトリ分析、
QSO情報等 =====================
   
 3)[jamsat-bb:12920]FO-29 CW telemetryにおいて脇田美根夫氏がFO
-29 のテレメトリ-の詳しい解析を
  されていましたので転載させて頂きました。

 2003年2月3日に受信された衛星 FO-29 の CWテレメトリ
を、プログラム『Fo29cwt2』を用いて解析してみました。

http://www.asahi-net.or.jp/~ei7m-wkt/numbr364.htm
http://www.ne.jp/asahi/hamradio/je9pel/fo29cwt2.zip

-------------------------------------------
Name: JE9PEL/1 脇田
Mail: ei7m-wkt@asahi-net.or.jp
URL : http://www.asahi-net.or.jp/~ei7m-wkt/
QTH : Yokohama, Japan
Date: Feb 7, 2003
-------------------------------------------
 ===============================================================
==================================
 
 4)JARL のホームページに運用予定が記載されていましたので
ご紹介します.
       ( http://www.jarl.or.jp/Japanese/3_Fuji/new/uy.htm )
       
        *** 運用予定について ***

        当分の間     アナログ系運用

  * なお,運用予定は都合により,変更することがありますの,で
あらかじめご了承願います。

 照会先 : lab@jarl.or.jp

 最新の情報はテレホンサービス(03−3942−1000)をお聞
きください。  
  
  ふじ2号(JAS−1b)の運用 

 CWテレメトリの機能に障害が発生しています。詳細は「ふじ2号」
の現況をご覧ください。
 運用はアナログ系の連続運用とします。 
     
-----------------------    FO−20(JAS-1b)道要素   ------
-------------------
  
  ■ 軌道要素1 :出典はFO-29「ふじ3号」に同じ.
  
O-20
1 20480U 90013C   03148.86815591  .00000006  00000-0  79743-4 0 
04957
2 20480 099.0627 093.0325 0540778 138.9542 225.3587 12.
83332876623257
 
  ■ 軌道要素2 :出典はFO−29「ふじ3号」に同じ.
               
Satellite: FO-20
Catalog number: 20480
Epoch time:      03148.86815591
Element set:    0495
Inclination:      099.0627 deg
RA of node:       093.0325 deg
Eccentricity:    0.0540778
Arg of perigee:   138.9542 deg
Mean anomaly:     225.3587 deg
Mean motion:   12.83332876 rev/day
Decay rate:        6.0e-08 rev/day^2
Epoch rev:           62325
Checksum:              322

----------------------------------------------------------------
---------------- 
         ■ ふじ2号/FO−20/JAS-1b ■      
            
          「ふじ2号」 現況                          
                                                        
             
   JAS-1b(ふじ2号)のCWテレメトリ信号に,1997年10月1
2日12時(JST)の
 日本上空通過時,3桁の数字が繰り返されるはずが3個の長音の繰り
返しとなっているという
 異常が発見されました。この不具合は次の通過時からは回復していま
したが13日15時20分の
 通過時に再び観測されました。現在はA0の送信が続いています。衛
星のアナログ系中継モード
 動作は異常が無く,正常時のテレメトリ内容からは衛星の動作に異常
は認められません。従って,
 直ちに衛星のミッションに影響することは無いと予想されますので,
当面はアナログ系中継
 モードを継続します。衛星は既に打ち上げてから7年8ヶ月を経てお
りますので,今後は監視を
 強化する予定です。アマチュア各位のレポートをお待ちします。
 --------------------------------------------------------------
------------------ 
  1997年10月14日 00時35分 確認のテレメトリ音 151 KB (A0) 
  1997年10月14日 11時10分 確認のテレメトリ音 216 KB (異常キ
ーイング) 

  以上 JARLのホ−ムページの http://www.jarl.or.jp/Japanese/
3_Fuji/new/fuji.htm

===================== FO-20 ふじ2号 のテレメトリ観測結果 ===
=================

  12月20日(金)13:59(JST)の観測結果ではテレメトリは、
以前観測した単一周波数の
正弦波がドップラー効果で周波数がずれていくのみの状態でした。
                                         
   =============   JAS-2 (ふじ3号)と現在までの情報   ========
===
  
  A.電話によるふじ3号の運用情報
      社団法人日本アマチュア連盟によるサービス
           TEL .   03− 3942 − 1000
  B.アマチュア無線FAXサービス
      JARLによるふじ3号の軌道情報(オービットカレンダー)
         FAX No.  03− 3233 −0055
  C.WWWブラウザで情報を簡単に見れる人のためにJAS-1,JA
S‐1b,
   JAS‐2(ふじ1号からふじ3号の衛星としての運用されるま
での名前)の
   概要、打ち上げまでの状況、運用中における状況を説明したホー
ムページを
   紹介しておきます.

     社団法人日本アマチュア無線連盟(JARL)のホームページ

         http://www.jarl.or.jp/Japanese/3_Fuji/new/fuji.htm
     http://www.jarl.or.jp/Japanese/3_Fuji/history/history.
htm
 
     宇宙開発事業団(NASDA)ホームページ 

      1)「ふじ1号」(JAS−1:FO−12)
         http://spaceboy.nasda.go.jp/lib/satellites/jas/j/jas_01
_j.html
         http://spaceboy.nasda.go.jp/lib/satellites/jas/g/h_15_
017.jpg
         http://spaceboy.nasda.go.jp/lib/satellites/jas/e/jas_01
_e.html
         http://space.nasda.go.jp/db/kaihatu/eisei/eisei_j/jas_1
_a_j.html#2
         http://spaceboy.nasda.go.jp/note/eisei/j/eis15h_j.html#
eis15h_01_j
         http://www.nasda.go.jp/lib/nasda-news/1996/12/resai_j.
html
         http://spaceboy.nasda.go.jp/lib/satellites/jas/g/h_15_
007.jpg
         http://www.nasda.go.jp/press/2002/02/pb_020220_j.html

      2)「ふじ2号」(JAS−1b:FO−20)
         http://spaceboy.nasda.go.jp/lib/satellites/mos/g/h_21_
018.jpg
         http://spaceboy.nasda.go.jp/lib/satellites/mos/g/h_21_
019.jpg
         http://spaceboy.nasda.go.jp/note/eisei/j/eis15h_j.html#
eis15h_01_j

      3)「ふじ3号」(JAS−2:FO−29)
         http://www.nasda.go.jp/lib/nasda-news/1996/09/h2_j.html
         http://www.nasda.go.jp/pr/services/presskit/h2-f4/p-h2_
3_e.html
         http://space.nasda.go.jp/db/kaihatu/eisei/eisei_j/jas-2
_j.html
         http://spaceboy.nasda.go.jp/note/eisei/j/eis15i_j.html#
eis15i_03_j

  D.JAMSATによる軌道情報の活用
        JAMSATのホームページまたはjamsat−kepsの軌道要素より
      衛星の軌道情報を得る.
     JAMSATホームページ
               URL    http://www.jamsat.or.jp
       上記ホームページでは各地で行われるアマチュア通信衛星に関
する
      ミューティングのお知らせや世界のアマチュア衛星に関する情報
が
      満載されています.

 ==============================================================
==========  
     JAMSATのメンバーのご協力によりJH6MME(高山 秀
造)が
    執筆・編集を担当しております.ご指摘の意見、疑問やこのように
したら
    というアイデアがありましたら小さなことでもかまいませんので気
軽に下
    記アドレスまでご連絡ください.jamsat−newsからja
s2
    infoへの転載をJH4PHW局坂井さんに担当して頂いており
ます.  
                  E-mail : jh6mme@jamsat.or.jp : jh4phw@jamsat.
or.jp
 ===============================   END  =====================
==========